SCP
1 1 1 1 1 1 0 0 0 0 0 0 0 0 1 1 1 1 1 0 0 0 0 0 0 0 0 0 0 0 0 0 0 0 0 0 0 0 0 0 0 0 0 0
1 1 1 1 1 0 0 0 0 0 0 0 0 0 0 0 1 1 0 0 0 0 0 0 0 0 0 0 0 0 0 0 0 0 0 0 0 0 0 0 0 0 0 0
1 1 1 0 0 0 0 0 0 0 0 0 0 0 0 0 0 0 0 0 0 0 0 0 0 0 0 0 0 0 0 0 0 0 0 0 0 0 0 0 0 0 0 0
1 0 0 0 0 0 0 0 0 0 0 0 0 0 0 0 0 0 0 0 0 0 0 0 0 0 0 0 0 0 0 0 0 0 0 0 0 0 0 0 0 0 0 0
0 0 0 0 0 0 0 0 0 0 0 0 0 0 0 0 0 0 0 0 0 0 0 0 0 0 0 0 0 0 0 0 0 0 0 0 0 0 0 0 0 0 0 0
0 0 0 0 0 0 0 0 0 0 0 0 0 0 0 0 0 0 0 0 0 0 0 0 0 0 0 0 0 0 0 0 0 0 0 0 0 0 0 0 0 0 0 0
0 0 0 0 0 0 0 0 0 0 0 0 0 0 0 0 0 0 0 0 0 0 0 0 0 0 0 0 0 0 0 0 0 0 0 0 0 0 0 0 0 0 0 0
0 0 0 0 0 0 0 0 0 0 0 0 0 0 0 0 0 0 0 0 0 0 0 0 0 0 0 0 0 0 0 0 0 0 0 0 0 0 0 0 0 0 0 0
0 0 0 0 0 0 0 0 0 0 0 0 0 0 0 0 0 0 0 0 0 0 0 0 0 0 0 0 0 0 0 0 0 0 0 0 0 0 0 0 0 0 0 0
0 0 0 0 0 0 0 0 0 0 0 0 0 0 0 0 0 0 0 0 0 0 0 0 0 0 0 0 0 0 0 0 0 0 0 0 0 0 0 0 0 0 0 0
0 0 0 0 0 0 0 0 0 0 0 0 0 0 0 0 0 0 0 0 0 0 0 0 0 0 0 0 0 0 0 0 0 0 0 0 0 0 0 0 0 0 0 0
0 0 0 0 0 0 0 0 0 0 0 0 0 0 0 0 0 0 0 0 0 0 0 0 0 0 0 0 0 0 0 0 0 0 0 0 0 0 0 0 0 0 0 0
0 0 0 0 0 0 0 0 0 0 0 0 0 0 0 0 0 0 0 0 0 0 0 0 0 0 0 0 0 0 0 0 0 0 0 0 0 0 0 0 0 0 0 0
0 0 0 0 0 0 0 0 0 0 0 0 0 0 0 0 0 0 0 0 0 0 0 0 0 0 0 0 0 0 0 0 0 0 0 0 0 0 0 0 0 0 0 0
0 0 0 0 0 0 0 0 0 0 0 0 0 0 0 0 0 0 0 0 0 0 0 0 0 0 0 0 0 0 0 0 0 0 0 0 0 0 0 0 0 0 0 0
0 0 0 0 0 0 0 0 0 0 0 0 0 0 0 0 0 0 0 0 0 0 0 0 0 0 0 0 0 0 0 0 0 0 0 0 0 0 0 0 0 0 0 0
0 0 0 0 0 0 0 0 0 0 0 0 0 0 0 0 0 0 0 0 0 0 0 0 0 0 0 0 0 0 0 0 0 0 0 0 0 0 0 0 0 0 0 0
0 0 0 0 0 0 0 0 0 0 0 0 0 0 0 0 0 0 0 0 0 0 0 0 0 0 0 0 0 0 0 0 0 0 0 0 0 0 0 0 0 0 0 0
0 0 0 0 0 0 0 0 0 0 0 0 0 0 0 0 0 0 0 0 0 0 0 0 0 0 0 0 0 0 0 0 0 0 0 0 0 0 0 0 0 0 0 0
0 0 0 0 0 0 0 0 0 0 0 0 0 0 0 0 0 0 0 0 0 0 0 0 0 0 0 0 0 0 0 0 0 0 0 0 0 0 0 0 0 0 0 0
0 0 0 0 0 0 0 0 0 0 0 0 0 0 0 0 0 0 0 0 0 0 0 0 0 0 0 0 0 0 0 0 0 0 0 0 0 0 0 0 0 0 0 0
0 0 0 0 0 0 0 0 0 0 0 0 0 0 0 0 0 0 0 0 0 0 0 0 0 0 0 0 0 0 0 0 0 0 0 0 0 0 0 0 0 0 0 0
0 0 0 0 0 0 0 0 0 0 0 0 0 0 0 0 0 0 0 0 0 0 0 0 0 0 0 0 0 0 0 0 0 0 0 0 0 0 0 0 0 0 0 0
0 0 0 0 0 0 0 0 0 0 0 0 0 0 0 0 0 0 0 0 0 0 0 0 0 0 0 0 0 0 0 0 0 0 0 0 0 0 0 0 0 0 0 0
0 0 0 0 0 0 0 0 0 0 0 0 0 0 0 0 0 0 0 0 0 0 0 0 0 0 0 0 0 0 0 0 0 0 0 0 0 0 0 0 0 0 0 0
0 0 0 0 0 0 0 0 0 0 0 0 0 0 0 0 0 0 0 0 0 0 0 0 0 0 0 0 0 0 0 0 0 0 0 0 0 0 0 0 0 0 0 0
Wind_Speed
3 4 4 6 7 7 5 3 3 5 5 6 8 8 7 8 6 7 6 6 7 7 5 5 5 4 4 4 3 2 2 2 1 1 2 2 3 3 3 3 3 3 3 2
3 2 5 6 5 5 3 1 2 4 4 5 5 6 5 8 9 8 8 8 8 6 5 4 4 4 4 3 2 2 1 1 1 1 1 2 2 3 3 3 4 3 3 3
5 4 5 7 4 4 3 4 5 5 2 1 1 4 1 2 3 4 6 7 8 10 9 6 5 4 4 3 2 2 1 1 2 2 2 2 2 3 3 4 4 4 4 3
2 3 3 4 4 5 4 6 7 4 2 3 3 1 4 2 3 5 5 6 7 8 7 6 5 4 4 3 3 3 1 0 2 2 2 2 2 2 3 3 3 5 4 3
2 4 4 4 5 7 7 5 3 2 2 2 0 4 5 2 4 5 5 6 7 7 8 7 6 6 4 4 3 2 1 1 2 2 2 2 1 2 3 3 4 4 4 4
3 3 4 5 4 5 3 4 5 5 4 2 3 5 4 5 7 6 5 6 7 7 7 7 5 5 3 3 2 2 1 1 2 2 2 1 2 2 3 4 4 4 3 3
1 2 2 3 3 0 5 6 5 5 4 5 2 4 6 5 5 8 9 8 7 7 7 7 6 5 4 4 3 2 1 1 2 2 2 2 2 2 2 3 3 3 3 3
3 2 3 3 5 4 4 8 6 3 4 4 3 1 4 2 3 5 7 7 7 7 7 7 7 6 5 5 4 2 2 2 2 2 2 2 2 1 2 3 2 3 2 3
5 3 2 1 2 5 4 3 6 6 1 1 2 1 3 1 1 3 5 6 7 7 7 7 7 6 6 5 5 4 3 2 2 2 2 2 2 2 3 3 3 2 3 3
5 2 2 1 3 2 5 6 5 4 2 1 2 3 5 7 7 5 6 7 7 6 6 7 6 6 5 5 4 4 3 2 2 1 1 1 2 2 2 3 3 3 4 3
3 3 2 2 2 4 1 2 5 4 5 5 2 6 7 10 9 8 9 8 8 8 7 7 6 6 5 4 4 3 3 2 1 1 1 1 2 2 2 3 3 3 3 3
3 5 0 3 4 3 4 4 6 4 2 4 3 8 5 7 7 7 7 7 7 7 7 6 6 5 4 4 4 4 3 3 2 2 1 1 1 2 3 3 4 3 3 3
4 5 3 5 6 2 1 3 5 6 5 4 3 7 3 3 4 5 7 7 6 6 6 5 5 5 5 5 4 4 3 3 3 2 1 0 1 2 3 3 3 3 3 4
5 4 6 7 7 5 3 4 5 6 4 3 6 6 3 4 5 5 6 7 7 7 7 6 5 5 5 5 5 4 4 4 3 2 1 1 1 2 2 3 3 3 3 3
5 3 4 5 5 4 5 7 7 6 8 8 7 6 8 8 9 8 7 6 6 6 6 7 7 6 5 4 4 4 4 3 3 2 2 2 2 1 2 2 3 3 3 3
3 3 0 3 3 3 4 7 8 7 6 6 5 6 7 5 4 5 6 7 7 7 7 7 7 6 6 5 5 4 4 4 3 3 3 2 1 1 1 2 2 3 3 3
3 4 2 3 4 2 5 8 9 7 7 8 9 9 4 4 7 8 8 8 8 7 7 7 7 7 7 6 6 5 5 4 3 3 2 2 1 1 2 2 2 2 3 3
6 4 3 1 2 4 10 6 7 8 7 7 7 6 8 9 7 6 7 9 7 7 6 6 6 6 5 5 5 4 4 4 3 2 2 2 2 2 2 1 2 2 2 2
5 7 4 3 2 7 9 5 5 6 5 6 8 7 6 5 4 1 3 6 8 7 6 6 6 5 5 5 5 5 4 3 3 3 3 3 3 2 2 2 3 2 2 2
5 5 6 4 2 6 9 6 2 5 3 4 7 8 7 7 4 5 4 5 5 5 5 4 4 4 5 4 5 5 4 4 4 5 5 4 3 3 3 4 3 2 2 3
1 2 4 4 4 9 9 3 4 4 8 4 6 8 9 8 8 6 6 5 5 5 5 5 5 5 4 4 5 5 4 4 5 4 4 3 3 4 4 3 3 2 2 2
7 5 5 5 4 10 6 4 6 9 4 3 5 6 7 6 5 6 7 7 6 5 5 5 5 4 3 4 5 4 3 4 3 3 3 3 4 3 3 3 3 2 2 2
7 9 8 10 10 8 5 7 6 5 5 5 5 6 8 8 7 7 6 6 6 5 5 4 5 4 2 2 4 4 3 2 2 2 2 3 3 3 3 3 3 2 2 2
5 2 3 4 7 5 4 3 3 5 6 5 6 7 8 8 8 7 6 6 5 4 4 4 5 4 2 1 2 2 2 2 2 2 2 2 2 3 3 3 3 3 3 3
5 1 1 4 5 3 4 4 5 4 3 4 5 6 8 9 8 8 7 6 5 4 4 5 5 5 3 2 1 0 0 1 1 1 2 2 2 3 3 3 3 4 5 5
5 5 5 7 8 7 8 7 6 6 6 6 6 5 5 8 9 8 7 6 6 5 5 5 5 4 2 2 1 1 0 1 1 0 2 2 2 2 2 3 4 5 6 8
Wind_Direction
160 118 172 191 179 168 178 188 236 242 209 181 220 237 211 199 193 187 189 180 166 170 174 156 148 134 116 99 89 78 51 4 9 355 344 331 319 316 322 318 309 308 306 305
68 205 199 160 159 145 164 198 256 267 223 190 231 251 223 196 196 185 178 172 163 155 153 159 151 132 123 119 102 83 51 9 350 306 280 267 281 292 297 311 324 320 315 310
162 210 165 153 169 175 195 183 208 227 286 272 126 338 291 208 179 173 173 168 159 160 164 167 155 146 132 128 120 104 82 22 337 326 329 341 348 336 337 333 329 322 322 319
184 225 165 159 187 162 228 216 203 201 133 274 151 235 281 204 170 180 179 163 160 160 159 162 158 154 151 156 140 129 121 346 330 347 6 357 349 322 297 301 308 318 326 325
217 195 176 193 208 172 211 224 212 199 157 330 30 137 277 164 190 204 191 173 167 164 161 164 163 160 158 156 148 144 120 337 334 354 12 15 351 299 302 319 331 333 333 337
218 222 192 193 197 188 173 51 31 47 71 322 238 148 235 216 201 190 187 179 171 165 162 161 160 151 151 155 147 141 122 315 326 347 4 20 350 334 342 340 338 332 328 328
341 299 228 162 133 69 84 78 28 10 16 263 247 135 231 236 192 174 177 182 181 172 162 161 162 163 166 169 170 163 159 288 311 331 338 334 327 326 326 318 320 323 324 317
140 253 233 179 165 167 162 135 151 182 219 280 0 162 257 271 180 163 167 175 178 179 175 175 178 179 181 184 183 182 190 250 292 310 314 318 321 319 310 312 309 311 299 293
160 236 273 201 162 137 132 151 166 138 175 310 331 346 324 332 160 165 174 176 187 189 186 184 183 184 186 190 196 196 197 233 276 290 308 327 329 330 322 321 326 318 306 311
150 164 289 281 63 48 143 145 96 105 130 319 312 229 225 220 220 211 198 197 200 191 187 186 186 189 193 195 198 198 195 211 238 263 303 334 327 326 326 335 333 325 321 330
124 126 338 31 174 201 136 106 104 113 147 150 220 261 226 201 202 200 205 202 194 187 187 187 191 194 191 186 187 198 204 202 216 242 292 344 328 331 342 340 326 322 327 334
139 113 131 278 286 198 166 168 140 142 200 157 170 262 267 197 196 191 199 200 192 185 184 184 186 186 184 184 189 197 197 196 214 217 209 299 317 338 345 338 330 330 332 335
130 107 78 351 339 344 178 173 147 131 121 149 168 262 297 193 197 199 192 192 189 182 179 179 182 188 193 192 194 198 198 201 210 195 173 312 327 330 330 328 334 343 344 344
119 119 154 187 220 213 219 215 161 128 147 198 213 234 246 210 206 209 197 191 187 184 181 182 192 202 203 198 197 196 201 200 192 175 168 240 284 290 302 321 341 347 348 352
114 150 202 224 232 202 212 215 195 180 184 185 219 214 227 214 206 203 195 187 183 187 188 190 195 202 203 201 206 201 201 201 185 170 187 239 266 289 316 333 341 346 347 351
120 153 177 304 282 250 243 227 207 209 200 203 208 236 231 212 180 179 183 180 187 194 195 195 194 192 193 194 199 197 199 202 177 173 202 227 261 306 316 318 332 343 341 341
140 145 133 274 305 13 274 229 203 207 205 183 205 223 201 178 188 190 189 185 190 194 193 191 191 192 193 194 188 189 196 188 171 182 206 217 225 258 288 313 336 328 324 333
146 134 139 204 21 247 249 249 199 201 221 197 190 196 188 191 194 191 182 179 189 191 188 189 188 188 189 186 183 178 166 165 171 186 211 221 222 248 277 308 307 300 304 311
146 138 128 132 213 275 289 272 176 169 243 209 186 189 183 151 93 345 210 178 182 185 182 185 183 177 174 175 174 156 158 169 178 201 219 224 218 230 255 272 276 273 285 295
79 99 119 129 176 245 256 270 183 108 270 253 180 176 163 131 137 238 214 170 163 162 162 161 156 145 156 175 157 147 165 177 204 219 224 223 217 221 236 250 259 261 256 270
91 82 132 161 212 261 255 262 92 138 235 243 175 167 162 174 193 196 167 159 156 155 157 148 141 147 168 163 145 149 170 205 223 224 222 225 226 228 235 248 256 262 273 293
181 171 183 154 193 254 248 154 179 212 214 168 159 165 164 171 159 152 157 157 153 148 147 144 140 151 163 152 143 152 198 226 220 212 218 234 240 244 237 236 259 265 267 286
199 192 185 185 211 235 221 203 208 173 172 177 162 164 151 148 155 156 157 155 154 152 150 144 142 139 130 144 143 160 226 220 191 195 233 254 263 259 250 235 250 265 261 261
272 175 156 240 261 254 236 213 186 179 178 177 166 159 153 154 157 155 154 155 153 151 149 138 131 130 133 136 133 172 216 193 171 205 251 268 275 282 277 258 244 242 250 254
249 227 185 259 276 301 279 239 209 196 164 148 148 157 160 154 156 157 155 157 155 149 143 135 137 143 156 149 137 171 160 138 163 227 267 281 275 274 279 274 253 242 239 228
219 196 196 232 228 207 233 230 201 179 184 173 157 154 161 159 158 153 154 157 151 146 139 134 137 140 139 116 78 1 3 142 148 246 292 291 290 287 284 288 299 276 262 272